Sudbury, Ontario

9:27 AM EDT on July 27, 2017 (GMT -0400)
Sudbury

Weather History for CYSB - March, 2013

Change the Weather History Date:

Wednesday, March 13, 2013

  Actual Average Record
Temperature  
Mean Temperature 15 °F -  
Max Temperature 22 °F 38 °F 48 °F (2007)
Min Temperature 8 °F 20 °F -16 °F (2014)
Degree Days  
Heating Degree Days 50    
Moisture  
Dew Point 11 °F    
Average Humidity 79    
Maximum Humidity 93    
Minimum Humidity 56    
Precipitation  
Precipitation 0.00 in 0.08 in - ()
Sea Level Pressure  
Sea Level Pressure 29.87 in    
Wind  
Wind Speed 9 mph ()    
Max Wind Speed 21 mph    
Max Gust Speed 28 mph    
Visibility 9.5 miles    
Events Snow    
Averages and records for this station are not official NWS values.
T = Trace of Precipitation, MM = Missing Value Source: Averaged Metar Reports

Daily Weather History Graph

Daily Weather History Graph

Search for Another Location

Airport or City:

Trip Planner

Search our weather history database for the weather conditions in past years. The results will help you decide how hot, cold, wet, or windy it might be!

Date:

Astronomy

Mar. 13, 2013 Rise Set
Actual Time 7:39 AM EDT 7:26 PM EDT
Civil Twilight 7:09 AM EDT 7:56 PM EDT
Nautical Twilight 6:34 AM EDT 8:31 PM EDT
Astronomical Twilight 5:58 AM EDT 9:07 PM EDT
Moon 8:09 AM EDT (3/13) 9:52 PM EDT (3/13)
Length of Visible Light 12h 47m
Length of Day
11h 47m
Waxing Crescent, 4% of the Moon is Illuminated
Mar 13
Waxing Crescent
Mar 19
First Quarter
Mar 27
Full
Apr 3
Last Quarter
Apr 10
New

Hourly Weather History & Observations

Time (EDT) Temp. Windchill Dew Point Humidity Pressure Visibility Wind Dir Wind Speed Gust Speed Precip Events Conditions
12:00 AM 23.0 °F 13.9 °F 21.2 °F 93% 29.79 in 3.0 mi SW 8.1 mph - N/A Snow Light Snow
12:13 AM - - - N/A% - 5.0 mi WSW 10.4 mph - N/A   Unknown
1:00 AM 23.0 °F 13.9 °F 21.2 °F 93% 29.78 in 8.0 mi WSW 8.1 mph - N/A Snow Light Snow
2:00 AM 22 °F - 18 °F 77% 29.79 in 15 mi West 5.8 mph - - Snow Light Snow
3:00 AM 21.2 °F 14.9 °F 17.6 °F 86% 29.79 in 15.0 mi West 4.6 mph - N/A   Overcast
4:00 AM 21.2 °F 14.9 °F 17.6 °F 86% 29.78 in 15.0 mi WSW 4.6 mph - N/A   Overcast
5:00 AM 21.2 °F 11.7 °F 17.6 °F 86% 29.79 in 15.0 mi West 8.1 mph - N/A   Overcast
6:00 AM 21.2 °F 13.6 °F 17.6 °F 86% 29.79 in 15.0 mi NW 5.8 mph - N/A Snow Light Snow
7:00 AM 19.4 °F 7.9 °F 17.6 °F 93% 29.78 in 15.0 mi North 10.4 mph - N/A Snow Light Snow
8:00 AM 17 °F - 14 °F 84% 29.80 in 4 mi NNW 11.5 mph - - Snow Light Snow
8:00 AM 17.6 °F 5.0 °F 14.0 °F 86% 29.80 in 4.0 mi NNW 11.5 mph - N/A Snow Light Snow
9:00 AM 14.0 °F 2.0 °F 10.4 °F 86% 29.81 in 12.0 mi NNW 9.2 mph - N/A Snow Light Snow
9:23 AM - - - N/A% - 3.0 mi NW 11.5 mph - N/A   Unknown
9:28 AM - - - N/A% - 1.5 mi NW 11.5 mph - N/A   Unknown
10:00 AM 14.0 °F 0.5 °F 8.6 °F 79% 29.82 in 2.0 mi NNW 11.5 mph - N/A Snow Light Snow
10:16 AM - - - N/A% - 15.0 mi North 6.9 mph - N/A   Unknown
11:00 AM 14.0 °F 0.5 °F 8.6 °F 79% 29.83 in 20.0 mi NNW 11.5 mph - N/A Snow Light Snow
12:00 PM 15.8 °F 3.4 °F 8.6 °F 73% 29.84 in 15.0 mi NNW 10.4 mph - N/A Snow Light Snow
1:00 PM 15.8 °F 3.4 °F 6.8 °F 68% 29.85 in 12.0 mi NW 10.4 mph - N/A Snow Light Snow
2:00 PM 16 °F - 7 °F 56% 29.86 in 5 mi NNW 12.7 mph - - Snow Light Snow
2:00 PM 15.8 °F 2.1 °F 6.8 °F 68% 29.86 in 5.0 mi NNW 12.7 mph - N/A Snow Light Snow
3:00 PM 15.8 °F 0.9 °F 6.8 °F 68% 29.87 in 15.0 mi NW 15.0 mph 23.0 mph N/A Snow Light Snow
4:00 PM 15.8 °F 0.9 °F 6.8 °F 68% 29.88 in 6.0 mi NW 15.0 mph 24.2 mph N/A Snow Light Snow
5:00 PM 14.0 °F -2.0 °F 5.0 °F 67% 29.92 in 7.0 mi NW 16.1 mph 24.2 mph N/A Snow Light Snow
5:47 PM - - - N/A% - 3.0 mi NW 18.4 mph 26.5 mph N/A   Unknown
6:00 PM 12.2 °F -6.3 °F 5.0 °F 73% 29.95 in 3.0 mi NW 20.7 mph 26.5 mph N/A Snow Light Snow
7:00 PM 10.4 °F -7.2 °F 3.2 °F 73% 29.98 in 4.0 mi NNW 17.3 mph 27.6 mph N/A Snow Light Snow
8:00 PM 10 °F - 4 °F 66% 30.01 in 12 mi NNW 11.5 mph - - Snow Light Snow
8:00 PM 10.4 °F -4.1 °F 3.2 °F 73% 30.01 in 12.0 mi NNW 11.5 mph 19.6 mph N/A Snow Light Snow
9:00 PM 8.6 °F -2.6 °F 5.0 °F 85% 30.02 in 12.0 mi NNW 6.9 mph - N/A Snow Light Snow
10:00 PM 8.6 °F 0.1 °F 5.0 °F 85% 30.03 in 12.0 mi NW 4.6 mph - N/A Snow Light Snow
11:00 PM 8.6 °F 2.0 °F 6.8 °F 92% 30.04 in 12.0 mi WNW 3.5 mph - N/A Snow Light Snow